Tracking 30306 objects as of 23-Apr-2025
HD Live streaming from Space Station
objects crossing your sky now

QIANFAN-66

Track QIANFAN-66 now!
10-day predictions
QIANFAN-66 is classified as:


NORAD ID: 62796
Int'l Code: 2025-016M
Perigee: 1,041.4 km
Apogee: 1,060.2 km
Inclination: 89.0 °
Period: 106.1 minutes
Semi major axis: 7421 km
RCS: Unknown
Launch date: January 23, 2025
Source: People's Republic of China (PRC)
Launch site: Taiyaun Space Center, China (TSC)
Your satellite tracking list
Your tracking list is empty




NASA's NSSDC Master Catalog

Two Line Element Set (TLE):
1 62796U 25016M   25112.86496767  .00000207  00000-0  27094-3 0  9992
2 62796  88.9844 127.0831 0012721 303.8441  56.1503 13.57810341 15707
Source of the keplerian elements: AFSPC